Location: Allonne
(49.4086°N, 2.1143°E)
Time: 21:48:13
(UTC+00:00)

Tiangong - Visible Passes

Search period start: 10 June 2023 00:00
Search period end: 20 June 2023 00:00
Orbit: 386 x 390 km, 41.5° (Epoch: 10 June)

Date Brightness Start Highest point End Pass type
(mag) Time Alt. Az. Time Alt. Az. Time Alt. Az.
10 Jun -0.5 01:47:53 19° S 01:47:53 19° S 01:49:58 10° SE visible
11 Jun -0.5 02:24:24 15° SSW 02:25:21 17° S 02:27:34 10° SSE visible
12 Jun 0.3 01:28:55 12° SE 01:28:55 12° SE 01:29:14 10° SE visible
12 Jun 0.0 03:02:12 10° SW 03:03:02 11° SSW 03:03:53 10° S visible
13 Jun 0.3 02:06:14 10° SSE 02:06:14 10° SSE 02:06:21 10° SSE visible
15 Jun 0.1 21:30:53 10° SSW 21:31:23 12° S 21:31:23 12° S visible
16 Jun 0.0 22:07:49 10° SW 22:08:34 14° SSW 22:08:34 14° SSW visible
17 Jun -0.4 21:09:19 10° SSW 21:11:28 17° S 21:12:53 13° SE visible
18 Jun -0.6 21:46:36 10° SW 21:49:01 20° S 21:49:08 20° S visible
19 Jun -0.5 20:47:54 10° SW 20:50:15 19° S 20:52:36 10° SE visible
19 Jun 0.1 22:24:25 10° SW 22:25:09 13° SW 22:25:09 13° SW visible
